Location: Arrodets-la-Barthe
(43.0306°N, 0.2829°E)
Time: 07:21:16
(UTC+00:00)

CUBEBUG 2 - Pass Details

Date: 10 April 2023
Orbit: 577 x 685 km, 97.8° (Epoch: 03 June)

Event Time Altitude Azimuth Distance (km) Brightness Sun altitude
Rises 01:41:55 0° 24° (NNE) 3,028 ? -34.2°
Reaches altitude 10° 01:44:31 10° 37° (NE) 2,094 ? -33.9°
Enters shadow 01:47:03 23° 67° (ENE) 1,407 ? -33.7°
